Wind_Speed
9 9 10 10 9 9 8 7 6 6 5 5 6 7 6 5 5 5 6 6 5 6 5 5 7 7 7 7 8 8 8 8 9 8 8 8 8 8 8 7 6 5
10 9 10 10 10 9 8 7 7 6 6 6 7 8 8 7 7 6 7 7 6 7 6 7 7 6 7 7 7 8 8 8 8 8 8 8 8 8 8 7 6 6
8 9 10 10 11 10 9 9 8 8 8 7 7 9 8 8 8 8 8 7 7 8 7 7 7 6 7 7 7 8 8 8 8 8 8 8 8 8 8 8 7 7
7 8 9 10 11 11 10 10 9 9 9 8 8 9 9 9 9 9 8 8 8 8 8 8 7 7 7 7 7 8 8 8 8 8 8 8 8 8 8 8 8 8
7 7 9 10 11 11 10 9 10 10 10 9 9 9 10 10 10 9 9 8 8 8 8 8 8 7 7 7 8 8 8 8 8 7 8 8 8 8 8 8 9 9
8 8 8 10 10 10 9 10 10 11 11 10 10 10 10 10 10 9 9 8 8 8 8 9 8 8 8 8 8 8 8 8 8 8 8 8 8 8 8 8 9 9
12 13 10 9 9 9 9 10 11 11 11 11 10 10 10 10 10 10 9 9 9 9 9 9 9 9 9 9 8 9 9 9 9 9 9 9 8 8 8 8 8 8
15 14 11 9 9 9 9 10 12 12 12 11 10 10 10 10 10 10 10 10 9 9 9 9 10 10 10 9 9 10 10 9 9 9 10 9 8 8 8 7 7 7
12 12 11 10 9 10 10 11 12 12 12 11 10 10 10 10 10 10 10 10 10 9 10 10 10 10 9 10 10 11 10 9 9 9 9 9 8 8 7 7 6 6
11 11 12 11 10 10 10 11 12 12 12 11 10 10 10 10 10 11 11 11 11 10 10 10 10 10 10 10 11 10 10 9 9 9 9 8 8 8 8 8 7 6
10 11 12 12 11 10 10 10 11 11 12 12 11 11 10 10 10 11 11 11 12 11 11 11 11 11 11 11 10 10 10 10 9 9 9 8 7 7 7 8 7 7
9 10 11 11 11 10 10 10 10 11 12 12 12 12 11 10 11 11 11 12 12 12 13 13 12 12 11 11 11 11 10 10 10 9 9 8 7 7 7 7 7 7
9 10 10 10 10 9 9 10 11 12 13 13 12 12 12 12 12 11 12 12 13 13 14 14 14 14 13 13 12 12 11 11 10 10 9 9 8 8 8 8 8 8
8 8 8 8 9 8 8 9 11 12 13 13 12 12 13 13 13 12 12 13 13 14 14 14 15 15 14 14 14 13 13 12 11 11 10 10 9 9 9 9 9 9
7 6 6 6 7 7 9 10 11 11 12 12 12 12 13 13 13 14 13 14 14 14 14 15 15 15 15 16 15 15 14 13 12 12 12 11 11 11 10 10 10 10
6 5 5 6 6 6 8 11 11 11 11 12 13 13 13 13 14 15 15 16 16 16 16 16 15 15 16 18 17 16 15 14 13 12 12 12 12 12 12 12 12 11
5 4 4 5 6 6 7 9 10 9 10 11 11 12 13 13 14 15 16 16 17 17 17 17 15 16 19 21 20 18 16 15 14 14 13 12 12 12 12 13 14 10
3 3 3 4 5 5 6 6 6 7 7 9 10 11 12 14 14 15 15 14 15 16 16 15 15 17 21 23 22 21 18 15 14 13 13 12 11 12 10 10 11 8
2 2 1 2 3 4 5 5 6 6 6 7 9 10 11 13 14 15 15 14 15 16 17 16 16 18 20 22 23 24 22 18 14 12 13 12 11 11 10 9 8 6
3 2 1 1 1 2 4 5 6 6 6 7 8 10 12 13 15 15 15 14 15 17 17 16 14 15 17 20 23 24 24 21 15 11 12 12 10 10 11 11 10 8
5 4 3 3 2 2 3 5 6 7 8 8 8 10 12 13 15 16 16 17 18 19 20 19 16 15 18 21 23 23 24 22 17 12 11 11 9 10 11 10 9 9
5 4 4 4 4 4 4 5 6 7 9 9 10 11 12 14 16 16 17 21 22 22 22 22 21 20 21 23 24 24 24 22 17 13 12 12 10 10 9 8 8 8
6 6 5 5 5 5 6 6 6 7 8 9 10 12 13 14 15 16 18 20 20 20 20 22 23 23 24 25 25 25 25 22 18 15 13 13 13 12 10 9 8 8
8 8 7 7 7 7 7 7 8 8 8 9 10 11 13 14 14 16 18 17 17 18 19 19 19 19 22 25 25 26 26 22 17 15 14 13 12 11 10 10 11 11
10 10 9 9 9 8 8 8 9 10 10 10 11 11 12 13 13 15 16 16 16 17 19 19 18 16 18 21 22 23 24 21 16 14 13 11 10 10 9 10 13 15
11 10 10 10 10 10 10 10 10 11 11 12 13 13 13 13 13 14 15 15 14 15 16 17 17 18 19 19 18 19 21 20 17 14 12 11 13 13 12 12 13 15
Wind_Direction
168 157 150 149 148 150 150 148 147 151 152 146 140 134 126 118 112 112 113 116 115 108 99 91 86 88 91 86 83 85 79 76 74 69 72 76 78 79 76 76 74 75
178 164 158 152 146 147 149 147 147 150 148 143 138 131 126 123 121 120 119 119 114 107 101 98 95 94 102 100 92 91 88 84 83 81 82 81 81 83 79 78 80 80
184 168 161 151 144 146 149 148 148 147 144 141 138 134 130 128 126 122 121 119 113 109 105 105 107 103 106 108 101 99 98 91 86 84 84 82 83 86 86 86 84 84
196 174 161 148 145 148 151 151 149 146 145 145 145 142 138 134 130 126 123 120 116 113 110 110 112 109 110 112 108 104 99 93 92 93 91 88 88 89 90 91 88 85
221 193 160 149 151 153 154 155 151 147 147 150 152 151 147 143 139 135 132 129 124 120 118 116 116 115 113 110 108 108 104 101 100 100 102 100 98 98 96 95 91 88
227 217 172 157 159 159 161 160 154 150 150 155 159 159 158 154 151 148 145 142 138 133 131 127 125 123 121 117 114 114 113 113 112 111 111 109 107 106 104 103 98 92
216 215 192 172 169 168 167 161 157 154 154 160 163 164 167 164 160 158 156 154 152 148 143 139 135 132 131 130 126 122 119 118 119 120 116 113 113 112 109 107 105 101
210 206 192 182 178 177 173 164 162 160 159 164 167 168 172 171 165 162 162 162 160 155 150 146 143 139 137 136 132 128 126 125 126 125 119 118 119 119 116 113 112 112
201 195 189 186 182 182 177 167 165 165 163 167 170 172 176 174 169 166 167 166 163 160 157 153 149 145 142 140 137 135 133 131 131 129 127 130 132 132 132 129 129 129
192 191 191 189 188 187 178 173 171 169 169 172 174 176 179 177 173 173 173 170 168 168 164 159 156 152 150 147 145 145 144 139 137 138 140 144 146 147 147 146 148 147
185 187 192 194 195 189 178 180 182 177 175 177 180 182 182 180 178 180 180 177 176 175 171 169 166 162 160 157 155 155 154 152 152 151 154 159 159 158 157 158 162 162
179 183 192 195 198 195 189 191 193 190 187 184 186 187 186 186 185 186 187 185 185 182 178 176 174 172 171 166 164 165 164 164 163 163 167 170 170 171 172 173 175 175
177 185 191 194 200 204 201 195 195 197 195 190 190 191 191 191 191 193 195 194 193 191 187 183 180 179 179 176 176 174 172 172 171 172 176 177 180 184 185 188 191 191
169 179 188 196 201 203 201 196 197 199 200 197 195 195 197 197 196 198 200 202 201 197 192 189 185 184 183 182 182 179 178 179 178 179 182 183 187 194 194 198 202 203
148 158 176 190 195 196 197 199 200 198 200 202 201 201 201 203 204 204 204 208 207 202 198 195 191 190 188 185 184 182 181 182 183 186 189 189 192 198 202 208 213 213
130 142 169 179 184 194 199 204 206 203 203 206 209 211 209 210 214 212 210 212 211 207 203 198 197 197 193 188 186 183 182 184 187 190 195 198 202 207 209 212 220 223
120 138 166 175 182 193 200 206 209 209 212 214 216 219 218 219 223 220 218 218 216 213 207 200 200 202 198 193 188 185 184 186 190 191 196 203 207 216 222 221 226 239
117 138 162 178 185 194 200 207 213 215 220 222 223 224 223 224 228 228 225 221 218 216 211 204 205 207 204 200 195 192 189 187 193 196 196 201 204 214 228 227 223 233
87 111 146 175 186 201 208 214 221 223 226 230 232 234 232 230 233 235 232 225 221 222 219 214 215 216 212 208 205 204 200 196 199 201 198 202 204 209 221 226 224 226
40 43 37 34 215 226 228 230 233 232 235 237 239 241 240 239 241 242 238 231 226 228 230 229 229 227 224 218 213 213 212 208 208 211 209 209 208 210 219 225 231 235
13 11 5 353 318 273 255 249 244 240 237 236 238 240 241 241 244 245 245 240 236 235 236 237 237 236 235 229 221 218 217 215 215 218 214 210 209 210 218 227 232 229
359 351 342 328 311 297 282 266 255 248 243 238 238 243 243 241 242 245 248 247 245 244 244 242 238 236 237 234 226 222 220 217 217 218 213 210 206 196 197 217 224 216
348 341 332 322 308 296 287 280 272 263 253 243 242 246 248 248 246 247 247 245 241 239 242 245 242 236 234 234 229 224 222 220 220 221 214 206 198 187 183 190 191 196
337 332 328 322 309 297 291 287 280 273 265 256 249 248 250 251 251 250 249 244 237 233 233 237 236 227 225 229 228 225 223 222 222 219 208 194 183 176 177 184 189 196
324 321 319 314 306 300 296 291 283 276 270 264 258 254 253 251 249 250 250 246 244 242 238 233 229 225 227 228 225 223 221 218 214 208 198 186 172 160 159 173 188 192
308 306 306 304 300 297 294 289 283 278 272 266 260 256 256 254 249 247 248 247 244 241 238 231 225 228 233 227 217 214 209 204 202 194 183 182 179 168 159 157 167 177
Height
807 807 808 808 810 812 813 814 815 816 816 816 817 818 818 819 819 820 820 820 820 820 821 821 821 821 822 822 823 823 824 825 825 825 826 826 826 827 828 829 830 830
808 808 808 808 810 812 813 815 815 816 817 818 818 818 819 820 820 821 821 821 822 822 822 822 822 823 823 824 824 825 826 826 827 827 828 828 829 829 830 831 831 832
809 809 808 808 809 812 814 815 816 817 818 818 819 820 820 821 821 822 822 823 823 823 823 823 824 824 824 825 825 826 827 828 828 829 829 830 831 832 832 833 833 833
810 810 809 809 810 812 814 815 816 817 818 819 820 821 821 822 822 822 823 823 824 823 824 824 825 826 826 826 827 827 828 829 829 830 831 832 833 833 834 835 835 835
810 811 810 810 811 812 814 815 816 817 818 819 821 821 822 822 823 823 824 824 824 825 825 825 826 826 827 828 828 828 829 830 831 831 832 833 834 835 835 836 836 837
809 811 810 810 811 812 814 815 816 817 818 820 821 822 822 823 823 823 824 825 825 826 826 826 827 827 828 829 829 830 830 831 832 833 833 834 835 836 837 837 838 838
809 811 811 811 812 813 814 815 816 817 819 820 821 822 823 823 823 824 824 825 825 826 826 827 827 827 828 829 830 830 831 832 833 833 834 835 836 837 838 839 839 840
808 809 810 811 812 814 814 815 816 817 819 820 821 822 823 823 823 824 824 825 825 826 827 827 828 828 829 829 830 831 832 833 833 834 835 836 837 838 839 840 841 841
807 808 809 811 812 814 814 815 816 817 819 820 821 822 823 823 823 824 825 825 826 827 827 828 828 829 829 830 831 832 832 833 834 835 836 837 838 839 840 841 842 843
805 807 809 811 812 814 814 815 816 817 818 820 821 822 823 823 824 824 825 825 826 826 827 828 828 829 830 831 831 832 833 834 835 836 837 838 839 839 840 841 842 843
805 807 809 811 812 813 814 815 816 817 818 819 821 822 822 823 823 824 825 825 825 826 827 828 828 829 830 831 832 833 833 834 835 836 837 838 839 840 841 842 842 843
805 807 809 810 812 813 814 815 816 817 818 819 820 821 822 823 823 824 824 825 825 826 826 827 828 829 830 831 832 832 833 834 835 836 838 838 839 840 841 842 842 843
806 807 809 810 811 812 813 814 815 816 817 818 819 820 821 822 823 823 824 824 825 825 826 826 827 828 829 830 831 832 833 834 835 836 837 838 839 840 840 841 842 842
806 807 808 809 810 811 812 813 814 815 816 817 818 819 820 821 821 822 823 823 824 824 825 826 826 827 828 829 830 831 832 833 834 835 836 837 838 838 839 840 841 841
806 807 808 809 810 811 812 813 814 814 815 816 817 818 819 820 820 821 822 822 823 823 824 825 826 826 826 827 828 830 831 832 833 834 834 835 836 837 838 839 839 840
806 807 807 808 809 810 812 813 814 814 814 815 816 817 817 818 819 819 820 821 821 822 823 824 825 825 825 826 827 828 829 830 831 832 833 834 834 835 836 836 838 840
806 807 807 808 809 810 811 812 813 813 813 813 814 815 816 817 818 818 818 819 819 820 822 822 823 824 824 825 826 827 828 828 830 831 832 832 833 833 834 834 837 840
806 807 808 808 809 810 810 811 811 811 812 813 813 813 814 815 816 816 815 816 817 819 820 821 822 822 823 824 825 826 827 828 828 829 830 831 831 832 833 833 835 839
806 807 807 808 808 809 809 810 810 810 811 812 812 812 813 814 814 814 813 813 815 816 818 819 820 821 822 824 825 826 826 827 827 828 828 829 830 830 831 831 833 836
806 806 807 807 807 808 808 809 809 809 810 811 811 811 812 812 813 814 813 812 813 815 816 817 819 821 822 824 824 825 825 825 826 827 827 828 828 828 829 830 831 833
807 807 807 807 807 807 807 808 808 809 809 810 810 810 811 811 812 813 813 813 813 813 814 815 818 820 821 822 822 823 824 824 825 826 826 827 827 827 828 829 829 830
808 808 808 807 807 807 807 807 807 808 808 809 809 809 809 809 810 810 811 812 813 813 812 813 815 817 818 819 820 821 822 822 824 825 824 825 826 826 827 828 828 829
809 808 808 808 807 807 807 806 806 807 807 807 808 808 808 808 808 808 809 810 811 811 811 811 813 815 816 817 818 819 820 820 822 822 822 823 824 825 826 826 827 828
809 809 808 808 808 807 806 806 806 806 806 806 806 806 806 806 806 806 806 807 807 808 809 809 811 814 815 815 815 816 817 818 820 820 821 821 822 823 824 825 826 828
810 809 809 809 808 807 807 807 806 805 805 805 805 805 805 804 804 804 804 804 804 805 805 806 808 810 811 812 813 813 814 816 817 818 820 821 822 823 824 825 826 828
810 810 809 809 808 808 807 806 806 805 804 804 804 803 803 802 802 802 802 802 801 802 802 803 805 807 808 809 810 811 812 814 815 817 819 821 822 823 823 825 826 828